User: anonymous   Login
Location: Newark
(42.9260°N, 89.3850°W)
Time: 01:30:34
(UTC+00:00)
Language:

STARLINK-1022 - Orbit

View from above orbital plane
View from above orbital plane
View from above satellite
View from above satellite

Ground track
Ground track

The orbit data is extracted from the following two-line orbital elements,

1 44727U 19074Q   20047.58334491 +.00032515 +00000-0 +22402-2 0  9993
2 44727 053.0547 081.3272 0001435 053.1937 086.5794 15.05584964001764
Epoch (UTC): 16 February 2020 14:00:01
Eccentricity: 0.0001435
inclination: 53.0547°
perigee height: 549 km
apogee height: 551 km
right ascension of ascending node: 81.3272°
argument of perigee: 53.1937°
revolutions per day: 15.05584964
mean anomaly at epoch: 86.5794°
orbit number at epoch: 176

The dashed part of the orbit path shows where the satellite is in the earth's shadow,  

DLR